Time,TemperatureF,DewpointF,PressureIn,WindDirection,WindDirectionDegrees,WindSpeedMPH,WindSpeedGustMPH,Humidity,HourlyPrecipIn,Conditions,Clouds,dailyrainin,SolarRadiationWatts/m^2,SoftwareType,DateUTC
2013-09-07 00:03:00,63.7,60.7,29.94,West,267,3.5,3.5,90,0.00,RA,SKC,0.00,0.0,WeatherDisplay:10.37,2013-09-06 22:03:00,
2013-09-07 00:08:00,63.8,60.8,29.94,West,267,3.5,3.5,90,0.00,RA,SKC,0.00,0.0,WeatherDisplay:10.37,2013-09-06 22:08:00,
2013-09-07 00:13:00,63.8,60.8,29.93,West,266,5.8,5.8,90,0.00,BKN,SKC,0.00,0.0,WeatherDisplay:10.37,2013-09-06 22:13:00,
2013-09-07 00:18:00,63.8,60.8,29.94,WSW,257,4.6,4.6,90,0.00,BKN,SKC,0.00,0.0,WeatherDisplay:10.37,2013-09-06 22:18:00,
2013-09-07 00:23:00,63.8,60.8,29.94,WSW,252,3.5,3.5,90,0.00,BKN,SKC,0.00,0.0,WeatherDisplay:10.37,2013-09-06 22:23:00,
2013-09-07 00:28:00,63.6,60.3,29.94,WSW,238,6.0,6.0,89,0.00,BKN,SKC,0.00,0.0,WeatherDisplay:10.37,2013-09-06 22:28:00,
2013-09-07 00:33:00,63.6,60.3,29.94,SW,235,5.0,5.0,89,0.00,BKN,SKC,0.00,0.0,WeatherDisplay:10.37,2013-09-06 22:33:00,
2013-09-07 00:38:00,63.6,60.3,29.94,SW,232,4.6,4.6,89,0.00,BKN,SKC,0.00,0.0,WeatherDisplay:10.37,2013-09-06 22:38:00,
2013-09-07 00:43:00,63.6,60.3,29.94,SW,227,6.9,6.9,89,0.00,BKN,SKC,0.00,0.0,WeatherDisplay:10.37,2013-09-06 22:43:00,
2013-09-07 00:48:00,63.5,59.9,29.94,SW,226,4.6,4.6,88,0.00,BKN,SKC,0.00,0.0,WeatherDisplay:10.37,2013-09-06 22:48:00,
2013-09-07 00:53:00,63.4,59.8,29.94,SW,223,3.5,3.5,88,0.00,BKN,SKC,0.00,0.0,WeatherDisplay:10.37,2013-09-06 22:53:00,
2013-09-07 00:58:00,63.4,59.8,29.94,SW,223,3.5,3.5,88,0.00,BKN,SKC,0.00,0.0,WeatherDisplay:10.37,2013-09-06 22:58:00,
2013-09-07 01:03:00,63.4,59.8,29.94,SW,223,3.5,3.5,88,0.00,BKN,SKC,0.00,0.0,WeatherDisplay:10.37,2013-09-06 23:03:00,
2013-09-07 01:08:00,63.4,59.8,29.93,SW,223,3.5,0.0,88,0.00,BKN,SKC,0.00,0.0,WeatherDisplay:10.37,2013-09-06 23:08:00,
2013-09-07 01:13:00,63.5,59.9,29.94,SW,223,3.5,3.5,88,0.00,BKN,SKC,0.00,0.0,WeatherDisplay:10.37,2013-09-06 23:13:00,
2013-09-07 01:18:00,63.5,60.2,29.94,SW,223,3.5,3.5,89,0.00,BKN,SKC,0.00,0.0,WeatherDisplay:10.37,2013-09-06 23:18:00,
2013-09-07 01:23:00,63.5,60.2,29.94,SW,223,2.3,2.3,89,0.00,BKN,SKC,0.00,0.0,WeatherDisplay:10.37,2013-09-06 23:23:00,
2013-09-07 01:28:00,63.5,60.2,29.94,SW,223,0.0,0.7,89,0.00,BKN,SKC,0.00,0.0,WeatherDisplay:10.37,2013-09-06 23:28:00,
2013-09-07 01:33:00,63.4,60.1,29.94,SW,223,3.5,3.5,89,0.00,BKN,SKC,0.00,0.0,WeatherDisplay:10.37,2013-09-06 23:33:00,
2013-09-07 01:38:00,63.4,60.1,29.94,SW,223,2.3,0.0,89,0.00,BKN,SKC,0.00,0.0,WeatherDisplay:10.37,2013-09-06 23:38:00,
2013-09-07 01:43:00,63.4,60.1,29.94,SW,223,3.5,3.5,89,0.00,BKN,SKC,0.00,0.0,WeatherDisplay:10.37,2013-09-06 23:43:00,
2013-09-07 01:48:00,63.5,60.2,29.94,SW,223,4.6,4.6,89,0.00,BKN,SKC,0.00,0.0,WeatherDisplay:10.37,2013-09-06 23:48:00,
2013-09-07 01:53:00,63.5,60.2,29.94,SW,223,3.5,3.5,89,0.00,BKN,SKC,0.00,0.0,WeatherDisplay:10.37,2013-09-06 23:53:00,
2013-09-07 01:58:00,63.5,60.2,29.95,SW,222,5.8,5.8,89,0.00,BKN,SKC,0.00,0.0,WeatherDisplay:10.37,2013-09-06 23:58:00,
2013-09-07 02:03:00,63.4,59.8,29.95,SW,222,4.6,4.6,88,0.00,BKN,SKC,0.00,0.0,WeatherDisplay:10.37,2013-09-07 00:03:00,
2013-09-07 02:08:00,63.4,59.8,29.95,SW,222,3.5,3.5,88,0.00,BKN,SKC,0.00,0.0,WeatherDisplay:10.37,2013-09-07 00:08:00,
2013-09-07 02:13:00,63.4,60.1,29.95,SW,222,5.0,5.0,89,0.00,BKN,SKC,0.00,0.0,WeatherDisplay:10.37,2013-09-07 00:13:00,
2013-09-07 02:18:00,63.4,60.1,29.95,SW,222,3.5,3.5,89,0.00,BKN,SKC,0.00,0.0,WeatherDisplay:10.37,2013-09-07 00:18:00,
2013-09-07 02:23:00,63.4,60.1,29.95,SW,220,4.6,4.6,89,0.00,BKN,SKC,0.00,0.0,WeatherDisplay:10.37,2013-09-07 00:23:00,
2013-09-07 02:28:00,63.4,60.1,29.95,SW,220,3.5,3.5,89,0.00,BKN,SKC,0.00,0.0,WeatherDisplay:10.37,2013-09-07 00:28:00,
2013-09-07 02:33:00,63.3,60.0,29.96,SW,217,5.8,5.8,89,0.00,BKN,SKC,0.00,0.0,WeatherDisplay:10.37,2013-09-07 00:33:00,
2013-09-07 02:38:00,63.2,59.9,29.95,SW,216,5.8,5.8,89,0.00,BKN,SKC,0.00,0.0,WeatherDisplay:10.37,2013-09-07 00:38:00,
2013-09-07 02:43:00,63.3,60.0,29.95,SW,216,4.0,4.0,89,0.00,BKN,SKC,0.00,0.0,WeatherDisplay:10.37,2013-09-07 00:43:00,
2013-09-07 02:48:00,63.2,59.9,29.95,SW,215,4.6,4.6,89,0.00,BKN,SKC,0.00,0.0,WeatherDisplay:10.37,2013-09-07 00:48:00,
2013-09-07 02:53:00,63.2,59.9,29.96,SW,215,4.6,4.6,89,0.00,BKN,SKC,0.00,0.0,WeatherDisplay:10.37,2013-09-07 00:53:00,
2013-09-07 02:58:00,63.1,59.8,29.96,SW,215,3.5,3.5,89,0.00,BKN,SKC,0.00,0.0,WeatherDisplay:10.37,2013-09-07 00:58:00,
2013-09-07 03:03:00,63.1,59.8,29.96,SW,215,3.5,3.5,89,0.00,BKN,SKC,0.00,0.0,WeatherDisplay:10.37,2013-09-07 01:03:00,
2013-09-07 03:08:00,63.2,59.9,29.96,SW,215,4.0,4.0,89,0.00,BKN,SKC,0.00,0.0,WeatherDisplay:10.37,2013-09-07 01:08:00,
2013-09-07 03:13:00,63.2,59.9,29.96,SW,215,3.5,3.5,89,0.00,BKN,SKC,0.00,0.0,WeatherDisplay:10.37,2013-09-07 01:13:00,
2013-09-07 03:18:00,63.1,60.1,29.96,SW,215,4.0,4.0,90,0.00,BKN,SKC,0.00,0.0,WeatherDisplay:10.37,2013-09-07 01:18:00,
2013-09-07 03:23:00,63.1,60.1,29.97,SW,215,4.0,4.0,90,0.00,BKN,SKC,0.00,0.0,WeatherDisplay:10.37,2013-09-07 01:23:00,
2013-09-07 03:28:00,63.1,60.1,29.97,SW,215,4.0,4.0,90,0.00,BKN,SKC,0.00,0.0,WeatherDisplay:10.37,2013-09-07 01:28:00,
2013-09-07 03:33:00,63.0,59.7,29.96,SW,215,4.6,4.6,89,0.00,BKN,SKC,0.00,0.0,WeatherDisplay:10.37,2013-09-07 01:33:00,
2013-09-07 03:38:00,63.0,59.7,29.97,SW,215,3.5,3.5,89,0.00,BKN,SKC,0.00,0.0,WeatherDisplay:10.37,2013-09-07 01:38:00,
2013-09-07 03:43:00,62.9,59.6,29.97,SW,215,3.5,3.5,89,0.00,BKN,SKC,0.00,0.0,WeatherDisplay:10.37,2013-09-07 01:43:00,
2013-09-07 03:48:00,62.9,59.6,29.97,SW,215,4.6,4.6,89,0.00,BKN,SKC,0.00,0.0,WeatherDisplay:10.37,2013-09-07 01:48:00,
2013-09-07 03:53:00,62.9,59.6,29.97,SW,215,3.5,3.5,89,0.00,BKN,SKC,0.00,0.0,WeatherDisplay:10.37,2013-09-07 01:53:00,
2013-09-07 03:58:00,62.9,59.3,29.97,SW,215,7.0,7.0,88,0.00,BKN,SKC,0.00,0.0,WeatherDisplay:10.37,2013-09-07 01:58:00,
2013-09-07 04:03:00,62.8,59.2,29.97,SW,215,8.1,8.1,88,0.00,BKN,SKC,0.00,0.0,WeatherDisplay:10.37,2013-09-07 02:03:00,
2013-09-07 04:08:00,62.9,59.3,29.97,SW,219,6.9,6.9,88,0.00,BKN,SKC,0.00,0.0,WeatherDisplay:10.37,2013-09-07 02:08:00,
2013-09-07 04:13:00,62.8,58.9,29.97,SSW,200,6.0,6.0,87,0.00,BKN,SKC,0.00,0.0,WeatherDisplay:10.37,2013-09-07 02:13:00,
2013-09-07 04:18:00,62.7,58.8,29.97,SSW,200,5.8,5.8,87,0.00,BKN,SKC,0.00,0.0,WeatherDisplay:10.37,2013-09-07 02:18:00,
2013-09-07 04:23:00,62.7,58.8,29.97,SSW,203,5.8,5.8,87,0.00,BKN,SKC,0.00,0.0,WeatherDisplay:10.37,2013-09-07 02:23:00,
2013-09-07 04:28:00,62.7,58.8,29.97,SSW,204,4.6,4.6,87,0.00,BKN,SKC,0.00,0.0,WeatherDisplay:10.37,2013-09-07 02:28:00,
2013-09-07 04:33:00,62.6,58.7,29.97,SSW,205,5.0,5.0,87,0.00,BKN,SKC,0.00,0.0,WeatherDisplay:10.37,2013-09-07 02:33:00,
2013-09-07 04:38:00,62.6,58.7,29.98,SSW,205,7.0,7.0,87,0.00,BKN,SKC,0.00,0.0,WeatherDisplay:10.37,2013-09-07 02:38:00,
2013-09-07 04:43:00,62.6,58.4,29.98,SSW,207,5.8,5.8,86,0.00,BKN,SKC,0.00,0.0,WeatherDisplay:10.37,2013-09-07 02:43:00,
2013-09-07 04:48:00,62.5,58.3,29.98,SSW,208,4.6,4.6,86,0.00,BKN,SKC,0.00,0.0,WeatherDisplay:10.37,2013-09-07 02:48:00,
2013-09-07 04:53:00,62.5,58.3,29.98,SSW,208,3.5,3.5,86,0.00,BKN,SKC,0.00,0.0,WeatherDisplay:10.37,2013-09-07 02:53:00,
2013-09-07 04:58:00,62.4,58.2,29.98,SSW,208,5.0,5.0,86,0.00,BKN,SKC,0.00,0.0,WeatherDisplay:10.37,2013-09-07 02:58:00,
2013-09-07 05:03:00,62.4,58.2,29.98,SSW,208,6.9,6.9,86,0.00,BKN,SKC,0.00,0.0,WeatherDisplay:10.37,2013-09-07 03:03:00,
2013-09-07 05:08:00,62.4,58.2,29.98,SSW,207,3.5,3.5,86,0.00,BKN,SKC,0.00,0.0,WeatherDisplay:10.37,2013-09-07 03:08:00,
2013-09-07 05:13:00,62.4,57.8,29.98,SSW,208,5.8,5.8,85,0.00,BKN,SKC,0.00,0.0,WeatherDisplay:10.37,2013-09-07 03:13:00,
2013-09-07 05:18:00,62.3,58.1,29.99,SSW,207,4.6,4.6,86,0.00,BKN,SKC,0.00,0.0,WeatherDisplay:10.37,2013-09-07 03:18:00,
2013-09-07 05:23:00,62.3,58.1,29.98,SSW,207,5.8,5.8,86,0.00,BKN,SKC,0.00,0.0,WeatherDisplay:10.37,2013-09-07 03:23:00,
2013-09-07 05:28:00,62.3,58.1,29.99,SSW,207,4.6,4.7,86,0.00,BKN,SKC,0.00,0.0,WeatherDisplay:10.37,2013-09-07 03:28:00,
2013-09-07 05:33:00,62.3,58.1,29.99,SSW,207,4.6,4.6,86,0.00,BKN,SKC,0.00,0.0,WeatherDisplay:10.37,2013-09-07 03:33:00,
2013-09-07 05:38:00,62.2,58.0,29.99,SSW,207,5.8,5.8,86,0.00,BKN,SKC,0.00,0.0,WeatherDisplay:10.37,2013-09-07 03:38:00,
2013-09-07 05:43:00,62.2,58.0,29.99,SSW,207,5.8,5.8,86,0.00,BKN,SKC,0.00,0.0,WeatherDisplay:10.37,2013-09-07 03:43:00,
2013-09-07 05:48:00,62.2,58.0,29.99,SSW,207,4.6,4.6,86,0.00,BKN,SKC,0.00,0.0,WeatherDisplay:10.37,2013-09-07 03:48:00,
2013-09-07 05:53:00,62.1,57.9,29.99,SSW,207,3.5,3.5,86,0.00,BKN,SKC,0.00,0.0,WeatherDisplay:10.37,2013-09-07 03:53:00,
2013-09-07 05:58:00,62.1,57.9,29.99,SSW,207,5.0,5.0,86,0.00,BKN,SKC,0.00,0.0,WeatherDisplay:10.37,2013-09-07 03:58:00,
2013-09-07 06:01:00,62.1,57.9,29.99,SSW,207,5.8,5.8,86,0.00,BKN,SKC,0.00,0.0,WeatherDisplay:10.37,2013-09-07 04:01:00,
2013-09-07 06:02:00,62.1,57.9,29.99,SSW,208,5.8,5.8,86,0.00,BKN,SKC,0.00,0.0,WeatherDisplay:10.37,2013-09-07 04:02:00,
2013-09-07 06:03:00,62.1,57.5,29.99,SSW,208,5.8,5.8,85,0.00,BKN,SKC,0.00,0.0,WeatherDisplay:10.37,2013-09-07 04:03:00,
2013-09-07 06:04:00,62.1,57.5,29.99,SSW,208,5.8,5.8,85,0.00,BKN,SKC,0.00,0.0,WeatherDisplay:10.37,2013-09-07 04:04:00,
2013-09-07 06:05:00,62.1,57.5,29.99,SSW,208,5.8,5.8,85,0.00,BKN,SKC,0.00,0.0,WeatherDisplay:10.37,2013-09-07 04:05:00,
2013-09-07 06:07:00,62.1,57.5,29.99,SSW,208,5.8,5.8,85,0.00,BKN,SKC,0.00,0.0,WeatherDisplay:10.37,2013-09-07 04:07:00,
2013-09-07 06:12:00,62.1,57.5,29.99,SSW,208,3.5,3.5,85,0.00,BKN,SKC,0.00,0.0,WeatherDisplay:10.37,2013-09-07 04:12:00,
2013-09-07 06:14:00,62.1,57.5,29.99,SSW,208,3.5,3.5,85,0.00,BKN,SKC,0.00,0.0,WeatherDisplay:10.37,2013-09-07 04:14:00,
2013-09-07 06:17:00,62.1,57.5,29.99,SSW,208,3.5,0.0,85,0.00,BKN,SKC,0.00,0.0,WeatherDisplay:10.37,2013-09-07 04:17:00,
2013-09-07 06:22:00,62.1,57.5,29.99,SSW,208,3.5,3.5,85,0.00,BKN,SKC,0.00,0.0,WeatherDisplay:10.37,2013-09-07 04:22:00,
2013-09-07 06:27:00,62.1,57.9,29.99,SSW,208,4.0,4.0,86,0.00,BKN,SKC,0.00,0.0,WeatherDisplay:10.37,2013-09-07 04:27:00,
2013-09-07 06:32:00,62.1,57.5,29.99,SSW,208,3.5,3.5,85,0.00,BKN,SKC,0.00,0.0,WeatherDisplay:10.37,2013-09-07 04:32:00,
2013-09-07 06:37:00,62.0,57.4,29.99,SSW,208,3.5,3.5,85,0.00,BKN,SKC,0.00,0.0,WeatherDisplay:10.37,2013-09-07 04:37:00,
2013-09-07 06:42:00,62.0,57.8,30.00,SSW,208,3.5,3.5,86,0.00,BKN,SKC,0.00,0.0,WeatherDisplay:10.37,2013-09-07 04:42:00,
2013-09-07 06:58:00,61.9,57.7,30.00,SSW,208,5.8,5.8,86,0.00,BKN,SKC,0.00,0.0,WeatherDisplay:10.37,2013-09-07 04:58:00,
2013-09-07 07:03:00,62.0,57.8,30.00,SSW,208,4.6,4.6,86,0.00,BKN,SKC,0.00,0.0,WeatherDisplay:10.37,2013-09-07 05:03:00,
2013-09-07 07:08:00,62.0,57.8,30.01,SSW,208,3.5,3.5,86,0.00,BKN,SKC,0.00,0.0,WeatherDisplay:10.37,2013-09-07 05:08:00,
2013-09-07 07:13:00,61.9,57.7,30.00,SSW,208,4.6,4.6,86,0.00,BKN,SKC,0.00,0.0,WeatherDisplay:10.37,2013-09-07 05:13:00,
2013-09-07 07:18:00,61.9,57.7,30.00,SSW,208,1.2,0.0,86,0.00,BKN,SKC,0.00,0.0,WeatherDisplay:10.37,2013-09-07 05:18:00,
2013-09-07 07:23:00,61.9,57.7,30.00,SSW,208,3.5,3.5,86,0.00,BKN,SKC,0.00,0.0,WeatherDisplay:10.37,2013-09-07 05:23:00,
2013-09-07 07:28:00,61.9,57.3,30.00,SSW,209,4.6,4.7,85,0.00,BKN,SKC,0.00,0.0,WeatherDisplay:10.37,2013-09-07 05:28:00,
2013-09-07 07:33:00,61.9,57.3,30.00,SSW,209,3.5,3.5,85,0.00,BKN,SKC,0.00,7.1,WeatherDisplay:10.37,2013-09-07 05:33:00,
2013-09-07 07:38:00,62.0,57.4,30.00,SSW,209,1.2,1.5,85,0.00,BKN,SKC,0.00,7.1,WeatherDisplay:10.37,2013-09-07 05:38:00,
2013-09-07 07:43:00,61.9,57.3,30.01,SSW,209,5.8,5.8,85,0.00,OVC,SKC,0.00,7.1,WeatherDisplay:10.37,2013-09-07 05:43:00,
2013-09-07 07:48:00,61.9,57.3,30.01,SSW,209,2.3,2.3,85,0.00,OVC,SKC,0.00,7.1,WeatherDisplay:10.37,2013-09-07 05:48:00,
2013-09-07 07:53:00,61.8,57.2,30.01,SSW,209,3.5,3.5,85,0.00,BKN,SKC,0.00,11.1,WeatherDisplay:10.37,2013-09-07 05:53:00,
2013-09-07 07:58:00,61.8,57.2,30.01,SSW,209,3.5,3.5,85,0.00,BKN,SKC,0.00,14.1,WeatherDisplay:10.37,2013-09-07 05:58:00,
2013-09-07 08:03:00,61.7,57.1,30.01,SSW,209,3.5,3.5,85,0.00,OVC,SKC,0.00,9.1,WeatherDisplay:10.37,2013-09-07 06:03:00,
2013-09-07 08:08:00,61.6,57.0,30.01,SSW,209,3.5,3.5,85,0.00,OVC,SKC,0.00,12.1,WeatherDisplay:10.37,2013-09-07 06:08:00,
2013-09-07 08:13:00,61.6,57.0,30.01,SSW,209,4.6,4.6,85,0.00,OVC,SKC,0.00,12.1,WeatherDisplay:10.37,2013-09-07 06:13:00,
2013-09-07 08:18:00,61.6,57.0,30.01,SSW,208,4.0,4.0,85,0.00,OVC,SKC,0.00,14.1,WeatherDisplay:10.37,2013-09-07 06:18:00,
2013-09-07 08:23:00,61.5,56.6,30.02,SSW,208,6.9,6.9,84,0.00,OVC,SKC,0.00,9.1,WeatherDisplay:10.37,2013-09-07 06:23:00,
2013-09-07 08:28:00,61.5,56.6,30.02,SSW,207,6.9,6.9,84,0.00,OVC,SKC,0.00,26.3,WeatherDisplay:10.37,2013-09-07 06:28:00,
2013-09-07 08:33:00,61.6,56.4,30.02,SSW,207,4.0,4.0,83,0.00,BKN,SKC,0.00,16.2,WeatherDisplay:10.37,2013-09-07 06:33:00,
2013-09-07 08:38:00,61.6,56.0,30.02,SSW,207,5.8,5.8,82,0.00,OVC,SKC,0.00,12.1,WeatherDisplay:10.37,2013-09-07 06:38:00,
2013-09-07 08:43:00,61.6,56.0,30.02,SSW,207,5.0,5.0,82,0.00,OVC,SKC,0.00,14.1,WeatherDisplay:10.37,2013-09-07 06:43:00,
2013-09-07 08:48:00,61.7,56.5,30.02,SSW,207,5.8,5.8,83,0.00,OVC,SKC,0.00,19.2,WeatherDisplay:10.37,2013-09-07 06:48:00,
2013-09-07 08:53:00,61.7,56.5,30.02,SSW,207,4.6,4.6,83,0.00,BKN,SKC,0.00,25.3,WeatherDisplay:10.37,2013-09-07 06:53:00,
2013-09-07 08:58:00,61.7,56.5,30.02,SSW,207,3.5,4.2,83,0.00,BKN,SKC,0.00,23.2,WeatherDisplay:10.37,2013-09-07 06:58:00,
2013-09-07 09:03:00,61.8,56.6,30.02,SSW,207,3.5,3.5,83,0.00,BKN,SKC,0.00,23.2,WeatherDisplay:10.37,2013-09-07 07:03:00,
2013-09-07 09:08:00,61.8,56.6,30.03,SSW,207,5.8,5.8,83,0.00,OVC,SKC,0.00,16.2,WeatherDisplay:10.37,2013-09-07 07:08:00,
2013-09-07 09:13:00,61.9,56.7,30.03,SSW,207,4.0,4.0,83,0.00,OVC,SKC,0.00,23.2,WeatherDisplay:10.37,2013-09-07 07:13:00,
2013-09-07 09:18:00,61.9,56.7,30.03,SSW,207,3.5,3.5,83,0.00,BKN,SKC,0.00,30.3,WeatherDisplay:10.37,2013-09-07 07:18:00,
2013-09-07 09:23:00,61.9,56.7,30.03,SSW,207,5.0,5.0,83,0.00,OVC,SKC,0.00,18.2,WeatherDisplay:10.37,2013-09-07 07:23:00,
2013-09-07 09:28:00,61.9,56.3,30.03,SSW,207,4.6,4.6,82,0.00,OVC,SKC,0.00,19.2,WeatherDisplay:10.37,2013-09-07 07:28:00,
2013-09-07 09:33:00,62.0,56.4,30.03,SSW,207,3.5,3.5,82,0.00,OVC,SKC,0.00,30.3,WeatherDisplay:10.37,2013-09-07 07:33:00,
2013-09-07 09:38:00,62.0,56.4,30.03,SSW,207,3.5,3.5,82,0.00,BKN,SKC,0.00,49.5,WeatherDisplay:10.37,2013-09-07 07:38:00,
2013-09-07 09:43:00,62.0,56.1,30.04,SSW,206,4.6,4.6,81,0.00,BKN,SKC,0.00,47.5,WeatherDisplay:10.37,2013-09-07 07:43:00,
2013-09-07 09:48:00,62.0,55.8,30.03,SSW,202,5.8,5.8,80,0.00,BKN,SKC,0.00,25.3,WeatherDisplay:10.37,2013-09-07 07:48:00,
2013-09-07 09:53:00,62.1,55.2,30.04,SSW,200,5.8,5.8,78,0.00,BKN,SKC,0.00,23.2,WeatherDisplay:10.37,2013-09-07 07:53:00,
2013-09-07 09:58:00,62.3,55.4,30.05,SSW,200,7.0,7.0,78,0.00,OVC,SKC,0.00,26.3,WeatherDisplay:10.37,2013-09-07 07:58:00,
2013-09-07 10:03:00,62.3,55.7,30.05,SSW,200,3.5,3.5,79,0.00,OVC,SKC,0.00,30.3,WeatherDisplay:10.37,2013-09-07 08:03:00,
2013-09-07 10:08:00,62.3,55.7,30.05,SSW,200,4.0,4.0,79,0.00,OVC,SKC,0.00,28.3,WeatherDisplay:10.37,2013-09-07 08:08:00,
2013-09-07 10:13:00,62.3,55.7,30.05,SSW,200,6.0,6.0,79,0.00,OVC,SKC,0.00,28.3,WeatherDisplay:10.37,2013-09-07 08:13:00,
2013-09-07 10:18:00,62.3,55.7,30.06,SSW,200,5.0,5.0,79,0.00,OVC,SKC,0.00,33.3,WeatherDisplay:10.37,2013-09-07 08:18:00,
2013-09-07 10:23:00,62.4,55.8,30.06,SSW,198,6.9,6.9,79,0.00,BKN,SKC,0.00,37.4,WeatherDisplay:10.37,2013-09-07 08:23:00,
2013-09-07 10:28:00,62.4,55.8,30.06,SSW,198,6.9,6.9,79,0.00,BKN,SKC,0.00,56.6,WeatherDisplay:10.37,2013-09-07 08:28:00,
2013-09-07 10:33:00,62.5,55.9,30.06,SSW,197,5.8,5.8,79,0.00,BKN,SKC,0.00,54.5,WeatherDisplay:10.37,2013-09-07 08:33:00,
2013-09-07 10:38:00,62.5,56.2,30.06,SSW,199,8.1,8.1,80,0.00,BKN,SKC,0.00,42.4,WeatherDisplay:10.37,2013-09-07 08:38:00,
2013-09-07 10:43:00,62.5,56.2,30.06,SSW,196,6.9,6.9,80,0.00,BKN,SKC,0.00,42.4,WeatherDisplay:10.37,2013-09-07 08:43:00,
2013-09-07 10:48:00,62.5,56.2,30.06,SSW,196,5.8,5.8,80,0.00,BKN,SKC,0.00,53.5,WeatherDisplay:10.37,2013-09-07 08:48:00,
2013-09-07 10:53:00,62.5,56.2,30.06,SSW,195,5.8,5.8,80,0.00,BKN,SKC,0.00,49.5,WeatherDisplay:10.37,2013-09-07 08:53:00,
2013-09-07 10:58:00,62.5,56.2,30.06,SSW,195,4.6,4.6,80,0.00,BKN,SKC,0.00,62.6,WeatherDisplay:10.37,2013-09-07 08:58:00,
2013-09-07 11:03:00,62.6,56.0,30.06,SSW,195,6.0,6.0,79,0.00,BKN,SKC,0.00,53.5,WeatherDisplay:10.37,2013-09-07 09:03:00,
2013-09-07 11:08:00,62.6,56.0,30.06,SSW,195,4.0,4.0,79,0.00,BKN,SKC,0.00,47.5,WeatherDisplay:10.37,2013-09-07 09:08:00,
2013-09-07 11:13:00,62.6,56.0,30.06,SSW,195,7.0,7.0,79,0.00,BKN,SKC,0.00,56.6,WeatherDisplay:10.37,2013-09-07 09:13:00,
2013-09-07 11:18:00,62.7,56.1,30.07,SSW,194,3.5,3.5,79,0.00,BKN,SKC,0.00,54.5,WeatherDisplay:10.37,2013-09-07 09:18:00,
2013-09-07 11:23:00,62.7,56.1,30.06,SSW,194,4.0,4.0,79,0.00,BKN,SKC,0.00,49.5,WeatherDisplay:10.37,2013-09-07 09:23:00,
2013-09-07 11:28:00,62.6,55.3,30.06,South,182,5.8,5.8,77,0.00,BKN,SKC,0.00,70.7,WeatherDisplay:10.37,2013-09-07 09:28:00,
2013-09-07 11:33:00,62.7,55.0,30.06,South,182,4.6,4.6,76,0.00,BKN,SKC,0.00,194.9,WeatherDisplay:10.37,2013-09-07 09:33:00,
2013-09-07 11:38:00,62.9,55.2,30.06,South,182,4.6,4.6,76,0.00,BKN,SKC,0.00,179.8,WeatherDisplay:10.37,2013-09-07 09:38:00,
2013-09-07 11:43:00,63.1,55.4,30.06,South,182,4.6,4.6,76,0.00,BKN,SKC,0.00,383.8,WeatherDisplay:10.37,2013-09-07 09:43:00,
2013-09-07 11:48:00,63.4,55.0,30.06,South,182,4.6,4.6,74,0.00,BKN,SKC,0.00,449.4,WeatherDisplay:10.37,2013-09-07 09:48:00,
2013-09-07 11:53:00,64.1,55.6,30.06,South,185,6.0,6.0,74,0.00,BKN,SKC,0.00,543.4,WeatherDisplay:10.37,2013-09-07 09:53:00,
2013-09-07 11:58:00,64.7,55.5,30.07,South,173,6.0,6.0,72,0.00,SCT,SKC,0.00,412.1,WeatherDisplay:10.37,2013-09-07 09:58:00,
2013-09-07 12:03:00,64.9,54.9,30.07,South,178,3.5,3.5,70,0.00,BKN,SKC,0.00,557.5,WeatherDisplay:10.37,2013-09-07 10:03:00,
2013-09-07 12:08:00,65.2,55.2,30.07,South,175,3.5,3.5,70,0.00,SCT,SKC,0.00,417.1,WeatherDisplay:10.37,2013-09-07 10:08:00,
2013-09-07 12:13:00,65.5,54.2,30.07,SSW,198,9.0,9.0,67,0.00,BKN,SKC,0.00,326.2,WeatherDisplay:10.37,2013-09-07 10:13:00,
2013-09-07 12:18:00,65.4,53.7,30.07,SSW,201,8.1,8.1,66,0.00,BKN,SKC,0.00,318.1,WeatherDisplay:10.37,2013-09-07 10:18:00,
2013-09-07 12:23:00,65.4,53.7,30.07,South,188,12.7,12.7,66,0.00,BKN,SKC,0.00,328.3,WeatherDisplay:10.37,2013-09-07 10:23:00,
2013-09-07 12:28:00,65.3,54.1,30.07,SSW,209,9.2,9.2,67,0.00,BKN,SKC,0.00,326.2,WeatherDisplay:10.37,2013-09-07 10:28:00,
2013-09-07 12:33:00,65.2,54.4,30.07,SW,224,10.4,10.4,68,0.00,BKN,SKC,0.00,428.2,WeatherDisplay:10.37,2013-09-07 10:33:00,
2013-09-07 12:38:00,65.3,54.5,30.07,SW,216,10.4,10.4,68,0.00,BKN,SKC,0.00,348.4,WeatherDisplay:10.37,2013-09-07 10:38:00,
2013-09-07 12:43:00,65.4,55.4,30.07,South,186,10.0,10.0,70,0.00,BKN,SKC,0.00,445.4,WeatherDisplay:10.37,2013-09-07 10:43:00,
2013-09-07 12:48:00,65.6,55.9,30.07,SSW,211,9.2,9.2,71,0.00,SCT,SKC,0.00,502.0,WeatherDisplay:10.37,2013-09-07 10:48:00,
2013-09-07 12:53:00,65.8,55.7,30.07,SSW,213,7.0,7.0,70,0.00,BKN,SKC,0.00,429.3,WeatherDisplay:10.37,2013-09-07 10:53:00,
2013-09-07 12:58:00,66.2,55.7,30.07,SSW,194,7.0,7.0,69,0.00,SCT,SKC,0.00,845.4,WeatherDisplay:10.37,2013-09-07 10:58:00,
2013-09-07 13:03:00,66.4,55.9,30.08,South,188,11.5,11.5,69,0.00,CLR,SKC,0.00,761.5,WeatherDisplay:10.37,2013-09-07 11:03:00,
2013-09-07 13:08:00,66.4,56.3,30.08,South,186,11.5,11.5,70,0.00,FEW,SKC,0.00,648.4,WeatherDisplay:10.37,2013-09-07 11:08:00,
2013-09-07 13:13:00,66.2,56.1,30.08,SSW,211,11.5,11.5,70,0.00,BKN,SKC,0.00,838.3,WeatherDisplay:10.37,2013-09-07 11:13:00,
2013-09-07 13:18:00,66.3,55.4,30.08,South,175,13.0,13.0,68,0.00,FEW,SKC,0.00,223.2,WeatherDisplay:10.37,2013-09-07 11:18:00,
2013-09-07 13:23:00,66.4,55.1,30.08,SW,217,11.5,11.5,67,0.00,BKN,SKC,0.00,426.2,WeatherDisplay:10.37,2013-09-07 11:23:00,
2013-09-07 13:28:00,66.5,54.8,30.08,SSW,200,11.5,11.5,66,0.00,BKN,SKC,0.00,346.4,WeatherDisplay:10.37,2013-09-07 11:28:00,
2013-09-07 13:33:00,66.5,55.2,30.08,SSW,198,11.5,11.5,67,0.00,BKN,SKC,0.00,538.3,WeatherDisplay:10.37,2013-09-07 11:33:00,
2013-09-07 13:38:00,67.1,54.9,30.08,South,180,9.2,9.2,65,0.00,SCT,SKC,0.00,846.4,WeatherDisplay:10.37,2013-09-07 11:38:00,
2013-09-07 13:43:00,67.6,53.7,30.08,SSW,205,13.8,13.8,61,0.00,FEW,SKC,0.00,692.9,WeatherDisplay:10.37,2013-09-07 11:43:00,
2013-09-07 13:48:00,67.2,52.8,30.09,SSW,210,13.8,13.8,60,0.00,FEW,SKC,0.00,369.7,WeatherDisplay:10.37,2013-09-07 11:48:00,
2013-09-07 13:53:00,67.2,53.3,30.08,South,171,9.2,9.2,61,0.00,FEW,SKC,0.00,824.2,WeatherDisplay:10.37,2013-09-07 11:53:00,
2013-09-07 13:58:00,67.5,53.6,30.08,South,170,13.8,13.8,61,0.00,FEW,SKC,0.00,602.0,WeatherDisplay:10.37,2013-09-07 11:58:00,
2013-09-07 14:03:00,68.1,54.1,30.08,SSE,149,9.2,9.2,61,0.00,SCT,SKC,0.00,342.4,WeatherDisplay:10.37,2013-09-07 12:03:00,
2013-09-07 14:08:00,67.8,54.3,30.08,SSW,197,11.5,11.5,62,0.00,BKN,SKC,0.00,803.0,WeatherDisplay:10.37,2013-09-07 12:08:00,
2013-09-07 14:13:00,67.8,53.4,30.08,South,178,8.1,8.1,60,0.00,FEW,SKC,0.00,477.7,WeatherDisplay:10.37,2013-09-07 12:13:00,
2013-09-07 14:18:00,67.7,52.4,30.08,South,189,14.0,14.0,58,0.00,SCT,SKC,0.00,506.0,WeatherDisplay:10.37,2013-09-07 12:18:00,
2013-09-07 14:23:00,67.4,51.2,30.08,SSW,211,12.7,12.7,56,0.00,BKN,SKC,0.00,271.7,WeatherDisplay:10.37,2013-09-07 12:23:00,
2013-09-07 14:28:00,67.5,51.7,30.09,SW,221,11.5,11.5,57,0.00,BKN,SKC,0.00,302.0,WeatherDisplay:10.37,2013-09-07 12:28:00,
2013-09-07 14:33:00,67.4,51.6,30.09,SSW,211,10.4,10.4,57,0.00,SCT,SKC,0.00,699.9,WeatherDisplay:10.37,2013-09-07 12:33:00,
2013-09-07 14:38:00,67.7,52.4,30.09,SW,224,8.1,8.1,58,0.00,FEW,SKC,0.00,422.2,WeatherDisplay:10.37,2013-09-07 12:38:00,
2013-09-07 14:43:00,67.6,51.8,30.09,SSW,197,11.5,11.5,57,0.00,BKN,SKC,0.00,370.7,WeatherDisplay:10.37,2013-09-07 12:43:00,
2013-09-07 14:48:00,67.4,52.1,30.09,South,176,9.2,9.2,58,0.00,BKN,SKC,0.00,326.2,WeatherDisplay:10.37,2013-09-07 12:48:00,
2013-09-07 14:53:00,67.4,52.6,30.09,SSW,196,15.0,15.0,59,0.00,BKN,SKC,0.00,264.6,WeatherDisplay:10.37,2013-09-07 12:53:00,
2013-09-07 14:58:00,67.4,52.1,30.09,SSW,203,8.1,8.1,58,0.00,BKN,SKC,0.00,262.6,WeatherDisplay:10.37,2013-09-07 12:58:00,
2013-09-07 15:03:00,67.0,52.2,30.09,South,190,11.5,11.5,59,0.00,BKN,SKC,0.00,248.5,WeatherDisplay:10.37,2013-09-07 13:03:00,
2013-09-07 15:08:00,66.8,52.0,30.09,SW,229,9.2,9.2,59,0.00,BKN,SKC,0.00,211.1,WeatherDisplay:10.37,2013-09-07 13:08:00,
2013-09-07 15:13:00,66.6,52.3,30.08,SW,221,11.5,11.5,60,0.00,BKN,SKC,0.00,189.9,WeatherDisplay:10.37,2013-09-07 13:13:00,
2013-09-07 15:18:00,66.6,51.8,30.08,SSW,202,10.4,10.4,59,0.00,BKN,SKC,0.00,187.9,WeatherDisplay:10.37,2013-09-07 13:18:00,
2013-09-07 15:23:00,66.6,52.3,30.09,SSW,205,8.1,8.1,60,0.00,BKN,SKC,0.00,232.3,WeatherDisplay:10.37,2013-09-07 13:23:00,
2013-09-07 15:28:00,66.6,52.3,30.09,SW,219,10.4,10.4,60,0.00,BKN,SKC,0.00,339.4,WeatherDisplay:10.37,2013-09-07 13:28:00,
2013-09-07 15:33:00,66.6,52.7,30.10,SW,228,13.8,13.8,61,0.00,BKN,SKC,0.00,289.9,WeatherDisplay:10.37,2013-09-07 13:33:00,
2013-09-07 15:38:00,66.5,53.1,30.09,SW,215,8.1,8.1,62,0.00,BKN,SKC,0.00,269.7,WeatherDisplay:10.37,2013-09-07 13:38:00,
2013-09-07 15:43:00,66.6,53.2,30.09,SW,218,6.9,6.9,62,0.00,BKN,SKC,0.00,281.8,WeatherDisplay:10.37,2013-09-07 13:43:00,
2013-09-07 15:48:00,66.5,53.1,30.09,SSW,195,9.2,9.2,62,0.00,BKN,SKC,0.00,305.0,WeatherDisplay:10.37,2013-09-07 13:48:00,
2013-09-07 15:53:00,66.4,53.0,30.09,SSW,207,9.2,9.2,62,0.00,BKN,SKC,0.00,222.2,WeatherDisplay:10.37,2013-09-07 13:53:00,
2013-09-07 15:58:00,66.2,53.2,30.10,SSW,211,10.4,10.4,63,0.00,BKN,SKC,0.00,149.5,WeatherDisplay:10.37,2013-09-07 13:58:00,
2013-09-07 16:03:00,66.3,52.9,30.10,SSW,199,9.2,9.2,62,0.00,BKN,SKC,0.00,138.4,WeatherDisplay:10.37,2013-09-07 14:03:00,
2013-09-07 16:08:00,66.2,52.3,30.10,SW,218,11.5,11.5,61,0.00,BKN,SKC,0.00,177.8,WeatherDisplay:10.37,2013-09-07 14:08:00,
2013-09-07 16:13:00,66.2,51.9,30.10,SSW,207,10.4,10.4,60,0.00,BKN,SKC,0.00,252.5,WeatherDisplay:10.37,2013-09-07 14:13:00,
2013-09-07 16:26:00,66.5,51.3,30.10,SSW,205,10.4,10.4,58,0.00,BKN,SKC,0.00,381.8,WeatherDisplay:10.37,2013-09-07 14:26:00,
2013-09-07 16:31:00,66.9,52.1,30.10,South,178,11.5,11.5,59,0.00,OVC,SKC,0.00,458.5,WeatherDisplay:10.37,2013-09-07 14:31:00,
2013-09-07 16:36:00,67.2,51.9,30.10,SSW,192,11.5,11.5,58,0.00,FEW,SKC,0.00,459.6,WeatherDisplay:10.37,2013-09-07 14:36:00,
2013-09-07 16:41:00,67.0,51.7,30.09,South,183,5.8,5.8,58,0.00,FEW,SKC,0.00,193.9,WeatherDisplay:10.37,2013-09-07 14:41:00,
2013-09-07 16:46:00,67.0,51.7,30.09,South,184,10.0,10.0,58,0.00,BKN,SKC,0.00,407.0,WeatherDisplay:10.37,2013-09-07 14:46:00,
2013-09-07 16:51:00,67.0,50.8,30.09,South,188,11.5,11.5,56,0.00,BKN,SKC,0.00,152.5,WeatherDisplay:10.37,2013-09-07 14:51:00,
2013-09-07 16:56:00,66.8,51.1,30.09,SSW,212,10.4,10.4,57,0.00,BKN,SKC,0.00,119.2,WeatherDisplay:10.37,2013-09-07 14:56:00,
2013-09-07 17:01:00,66.8,50.1,30.10,SSW,194,12.7,12.7,55,0.00,BKN,SKC,0.00,435.3,WeatherDisplay:10.37,2013-09-07 15:01:00,
2013-09-07 17:06:00,67.2,50.0,30.10,SSW,200,9.2,9.2,54,0.00,SCT,SKC,0.00,321.2,WeatherDisplay:10.37,2013-09-07 15:06:00,
2013-09-07 17:11:00,67.6,49.9,30.10,SSW,200,6.9,6.9,53,0.00,FEW,SKC,0.00,440.4,WeatherDisplay:10.37,2013-09-07 15:11:00,
2013-09-07 17:16:00,67.7,49.4,30.10,South,188,11.5,11.5,52,0.00,FEW,SKC,0.00,431.3,WeatherDisplay:10.37,2013-09-07 15:16:00,
2013-09-07 17:21:00,67.6,48.8,30.09,South,186,10.4,10.4,51,0.00,FEW,SKC,0.00,379.8,WeatherDisplay:10.37,2013-09-07 15:21:00,
2013-09-07 17:26:00,67.5,48.7,30.09,SW,214,10.4,10.4,51,0.00,FEW,SKC,0.00,323.2,WeatherDisplay:10.37,2013-09-07 15:26:00,
2013-09-07 17:31:00,67.2,47.9,30.09,SSW,211,17.3,17.3,50,0.00,SCT,SKC,0.00,314.1,WeatherDisplay:10.37,2013-09-07 15:31:00,
2013-09-07 17:36:00,67.4,47.6,30.09,South,187,13.0,13.0,49,0.00,FEW,SKC,0.00,349.5,WeatherDisplay:10.37,2013-09-07 15:36:00,
2013-09-07 17:41:00,67.3,46.4,30.09,South,188,11.5,11.5,47,0.00,FEW,SKC,0.00,276.7,WeatherDisplay:10.37,2013-09-07 15:41:00,
2013-09-07 17:46:00,67.5,47.7,30.09,South,178,9.2,9.2,49,0.00,FEW,SKC,0.00,236.3,WeatherDisplay:10.37,2013-09-07 15:46:00,
2013-09-07 17:51:00,67.3,46.9,30.09,SSW,193,11.5,11.5,48,0.00,SCT,SKC,0.00,302.0,WeatherDisplay:10.37,2013-09-07 15:51:00,
2013-09-07 17:56:00,67.5,47.7,30.09,SSW,194,10.0,10.0,49,0.00,FEW,SKC,0.00,351.5,WeatherDisplay:10.37,2013-09-07 15:56:00,
2013-09-07 18:01:00,67.6,49.3,30.09,South,184,5.8,5.8,52,0.00,FEW,SKC,0.00,285.8,WeatherDisplay:10.37,2013-09-07 16:01:00,
2013-09-07 18:06:00,67.6,49.3,30.09,SSW,196,10.4,10.4,52,0.00,FEW,SKC,0.00,294.9,WeatherDisplay:10.37,2013-09-07 16:06:00,
2013-09-07 18:11:00,67.8,49.0,30.09,SW,221,9.2,9.2,51,0.00,FEW,SKC,0.00,281.8,WeatherDisplay:10.37,2013-09-07 16:11:00,
2013-09-07 18:16:00,67.6,48.3,30.09,South,188,10.4,10.4,50,0.00,FEW,SKC,0.00,236.3,WeatherDisplay:10.37,2013-09-07 16:16:00,
2013-09-07 18:21:00,67.6,47.8,30.09,SW,216,11.5,11.5,49,0.00,FEW,SKC,0.00,234.3,WeatherDisplay:10.37,2013-09-07 16:21:00,
2013-09-07 18:26:00,67.3,47.5,30.10,SSW,205,11.5,11.5,49,0.00,FEW,SKC,0.00,204.0,WeatherDisplay:10.37,2013-09-07 16:26:00,
2013-09-07 18:31:00,67.0,47.7,30.10,SW,221,10.4,10.4,50,0.00,SCT,SKC,0.00,172.7,WeatherDisplay:10.37,2013-09-07 16:31:00,
2013-09-07 18:36:00,67.0,47.2,30.10,SW,227,10.4,10.4,49,0.00,FEW,SKC,0.00,106.0,WeatherDisplay:10.37,2013-09-07 16:36:00,
2013-09-07 18:41:00,66.7,48.0,30.10,South,191,10.4,10.4,51,0.00,BKN,SKC,0.00,140.4,WeatherDisplay:10.37,2013-09-07 16:41:00,
2013-09-07 18:46:00,66.6,47.4,30.10,South,190,8.1,8.1,50,0.00,BKN,SKC,0.00,103.0,WeatherDisplay:10.37,2013-09-07 16:46:00,
2013-09-07 18:51:00,66.3,47.1,30.10,SSW,209,11.5,11.5,50,0.00,BKN,SKC,0.00,112.1,WeatherDisplay:10.37,2013-09-07 16:51:00,
2013-09-07 18:56:00,66.3,47.1,30.10,SW,215,5.8,5.8,50,0.00,SCT,SKC,0.00,147.5,WeatherDisplay:10.37,2013-09-07 16:56:00,
2013-09-07 19:01:00,66.4,46.7,30.10,SW,217,8.1,8.1,49,0.00,SCT,SKC,0.00,98.0,WeatherDisplay:10.37,2013-09-07 17:01:00,
2013-09-07 19:06:00,66.3,46.0,30.10,SW,218,9.2,9.2,48,0.00,SCT,SKC,0.00,131.3,WeatherDisplay:10.37,2013-09-07 17:06:00,
2013-09-07 19:11:00,66.2,46.5,30.09,SSW,207,6.9,6.9,49,0.00,FEW,SKC,0.00,122.2,WeatherDisplay:10.37,2013-09-07 17:11:00,
2013-09-07 19:16:00,66.1,46.4,30.10,SSW,203,8.1,8.1,49,0.00,SCT,SKC,0.00,63.6,WeatherDisplay:10.37,2013-09-07 17:16:00,
2013-09-07 19:21:00,66.0,46.8,30.10,SSW,203,6.0,6.0,50,0.00,BKN,SKC,0.00,47.5,WeatherDisplay:10.37,2013-09-07 17:21:00,
2013-09-07 19:26:00,65.8,46.6,30.10,SSW,205,8.1,8.1,50,0.00,BKN,SKC,0.00,44.4,WeatherDisplay:10.37,2013-09-07 17:26:00,
2013-09-07 19:31:00,65.7,46.0,30.10,SSW,196,6.9,6.9,49,0.00,SCT,SKC,0.00,51.5,WeatherDisplay:10.37,2013-09-07 17:31:00,
2013-09-07 19:36:00,65.6,45.4,30.10,SSW,196,6.9,6.9,48,0.00,SCT,SKC,0.00,46.5,WeatherDisplay:10.37,2013-09-07 17:36:00,
2013-09-07 19:41:00,65.6,45.4,30.10,SSW,196,5.8,5.8,48,0.00,SCT,SKC,0.00,32.3,WeatherDisplay:10.37,2013-09-07 17:41:00,
2013-09-07 19:46:00,65.5,45.3,30.10,SSW,196,5.8,5.8,48,0.00,SCT,SKC,0.00,23.2,WeatherDisplay:10.37,2013-09-07 17:46:00,
2013-09-07 19:51:00,65.4,45.2,30.11,SSW,210,6.9,6.9,48,0.00,SCT,SKC,0.00,19.2,WeatherDisplay:10.37,2013-09-07 17:51:00,
2013-09-07 19:56:00,65.3,45.1,30.10,SSW,209,6.9,6.9,48,0.00,SCT,SKC,0.00,16.2,WeatherDisplay:10.37,2013-09-07 17:56:00,
2013-09-07 20:01:00,65.2,45.5,30.10,SSW,209,5.8,5.8,49,0.00,SCT,SKC,0.00,16.2,WeatherDisplay:10.37,2013-09-07 18:01:00,
2013-09-07 20:06:00,65.2,45.5,30.11,SSW,209,4.6,4.6,49,0.00,SCT,SKC,0.00,11.1,WeatherDisplay:10.37,2013-09-07 18:06:00,
2013-09-07 20:11:00,65.2,45.5,30.11,SSW,209,3.5,3.5,49,0.00,SCT,SKC,0.00,5.0,WeatherDisplay:10.37,2013-09-07 18:11:00,
2013-09-07 20:16:00,65.1,46.0,30.11,SSW,209,5.8,5.8,50,0.00,SCT,SKC,0.00,0.0,WeatherDisplay:10.37,2013-09-07 18:16:00,
2013-09-07 20:21:00,65.0,45.9,30.11,SSW,209,5.8,5.8,50,0.00,SCT,SKC,0.00,5.0,WeatherDisplay:10.37,2013-09-07 18:21:00,
2013-09-07 20:26:00,64.9,45.8,30.12,SSW,209,5.8,5.8,50,0.00,SCT,SKC,0.00,0.0,WeatherDisplay:10.37,2013-09-07 18:26:00,
2013-09-07 20:31:00,64.9,46.3,30.11,SSW,209,4.0,4.0,51,0.00,SCT,SKC,0.00,0.0,WeatherDisplay:10.37,2013-09-07 18:31:00,
2013-09-07 20:36:00,64.8,46.2,30.12,SSW,209,3.5,3.5,51,0.00,SCT,SKC,0.00,0.0,WeatherDisplay:10.37,2013-09-07 18:36:00,
2013-09-07 20:41:00,64.8,46.2,30.11,SSW,209,5.8,5.8,51,0.00,SCT,SKC,0.00,0.0,WeatherDisplay:10.37,2013-09-07 18:41:00,
2013-09-07 20:46:00,64.8,46.2,30.11,SSW,209,3.5,3.5,51,0.00,SCT,SKC,0.00,0.0,WeatherDisplay:10.37,2013-09-07 18:46:00,
2013-09-07 20:51:00,64.8,46.8,30.12,SSW,209,3.5,3.5,52,0.00,SCT,SKC,0.00,0.0,WeatherDisplay:10.37,2013-09-07 18:51:00,
2013-09-07 20:56:00,64.8,46.8,30.11,SSW,209,2.3,2.3,52,0.00,SCT,SKC,0.00,0.0,WeatherDisplay:10.37,2013-09-07 18:56:00,
2013-09-07 21:01:00,64.7,47.2,30.11,SSW,209,1.2,0.0,53,0.00,SCT,SKC,0.00,0.0,WeatherDisplay:10.37,2013-09-07 19:01:00,
2013-09-07 21:06:00,64.7,47.2,30.11,SSW,209,0.0,0.0,53,0.00,SCT,SKC,0.00,0.0,WeatherDisplay:10.37,2013-09-07 19:06:00,
2013-09-07 21:11:00,64.6,47.1,30.12,SSW,209,0.0,0.0,53,0.00,SCT,SKC,0.00,0.0,WeatherDisplay:10.37,2013-09-07 19:11:00,
2013-09-07 21:16:00,64.5,47.0,30.12,SSW,209,0.0,0.0,53,0.00,SCT,SKC,0.00,0.0,WeatherDisplay:10.37,2013-09-07 19:16:00,
2013-09-07 21:21:00,64.5,47.0,30.12,SSW,209,0.0,0.0,53,0.00,SCT,SKC,0.00,0.0,WeatherDisplay:10.37,2013-09-07 19:21:00,
2013-09-07 21:26:00,64.4,47.4,30.12,SSW,209,0.0,0.0,54,0.00,SCT,SKC,0.00,0.0,WeatherDisplay:10.37,2013-09-07 19:26:00,
2013-09-07 21:31:00,64.4,47.4,30.12,SSW,209,0.0,0.0,54,0.00,SCT,SKC,0.00,0.0,WeatherDisplay:10.37,2013-09-07 19:31:00,
2013-09-07 21:36:00,64.4,48.4,30.12,SSW,209,0.0,0.0,56,0.00,SCT,SKC,0.00,0.0,WeatherDisplay:10.37,2013-09-07 19:36:00,
2013-09-07 21:41:00,64.3,49.7,30.12,SSW,209,0.0,0.0,59,0.00,SCT,SKC,0.00,0.0,WeatherDisplay:10.37,2013-09-07 19:41:00,
2013-09-07 21:46:00,64.1,49.9,30.13,SSW,209,0.0,0.0,60,0.00,SCT,SKC,0.00,0.0,WeatherDisplay:10.37,2013-09-07 19:46:00,
2013-09-07 21:51:00,63.9,49.3,30.13,SSW,209,0.0,0.0,59,0.00,SCT,SKC,0.00,0.0,WeatherDisplay:10.37,2013-09-07 19:51:00,
2013-09-07 21:56:00,63.6,49.5,30.13,SSW,209,1.2,1.2,60,0.00,SCT,SKC,0.00,0.0,WeatherDisplay:10.37,2013-09-07 19:56:00,
2013-09-07 22:01:00,62.9,49.7,30.13,SSW,209,2.3,2.3,62,0.00,SCT,SKC,0.00,0.0,WeatherDisplay:10.37,2013-09-07 20:01:00,
2013-09-07 22:06:00,62.4,49.6,30.13,SSW,209,0.0,0.0,63,0.00,SCT,SKC,0.00,0.0,WeatherDisplay:10.37,2013-09-07 20:06:00,
2013-09-07 22:11:00,62.2,49.4,30.13,SSW,209,1.2,1.2,63,0.00,SCT,SKC,0.00,0.0,WeatherDisplay:10.37,2013-09-07 20:11:00,
2013-09-07 22:16:00,62.0,49.3,30.13,SSW,209,2.3,2.3,63,0.00,SCT,SKC,0.00,0.0,WeatherDisplay:10.37,2013-09-07 20:16:00,
2013-09-07 22:21:00,62.0,49.7,30.12,SSW,209,1.2,0.0,64,0.00,SCT,SKC,0.00,0.0,WeatherDisplay:10.37,2013-09-07 20:21:00,
2013-09-07 22:26:00,62.0,50.1,30.13,SSW,209,0.0,0.0,65,0.00,SCT,SKC,0.00,0.0,WeatherDisplay:10.37,2013-09-07 20:26:00,
2013-09-07 22:31:00,62.0,50.1,30.13,SSW,209,0.0,0.0,65,0.00,SCT,SKC,0.00,0.0,WeatherDisplay:10.37,2013-09-07 20:31:00,
2013-09-07 22:36:00,62.0,50.1,30.13,SSW,209,0.0,0.0,65,0.00,SCT,SKC,0.00,0.0,WeatherDisplay:10.37,2013-09-07 20:36:00,
2013-09-07 22:41:00,62.0,50.5,30.13,SSW,209,0.0,0.0,66,0.00,SCT,SKC,0.00,0.0,WeatherDisplay:10.37,2013-09-07 20:41:00,
2013-09-07 22:46:00,62.0,50.5,30.13,SSW,209,0.0,0.0,66,0.00,SCT,SKC,0.00,0.0,WeatherDisplay:10.37,2013-09-07 20:46:00,
2013-09-07 22:51:00,62.0,50.5,30.13,SSW,209,0.0,0.0,66,0.00,SCT,SKC,0.00,0.0,WeatherDisplay:10.37,2013-09-07 20:51:00,
2013-09-07 22:56:00,62.1,51.0,30.13,SSW,209,0.0,0.0,67,0.00,SCT,SKC,0.00,0.0,WeatherDisplay:10.37,2013-09-07 20:56:00,
2013-09-07 23:01:00,62.1,50.6,30.13,SSW,209,0.0,0.0,66,0.00,SCT,SKC,0.00,0.0,WeatherDisplay:10.37,2013-09-07 21:01:00,
2013-09-07 23:06:00,62.2,50.3,30.13,SSW,209,1.2,0.0,65,0.00,SCT,SKC,0.00,0.0,WeatherDisplay:10.37,2013-09-07 21:06:00,
2013-09-07 23:11:00,62.2,50.3,30.13,SSW,209,0.0,0.0,65,0.00,SCT,SKC,0.00,0.0,WeatherDisplay:10.37,2013-09-07 21:11:00,
2013-09-07 23:16:00,62.5,50.6,30.13,SSW,209,1.2,1.2,65,0.00,SCT,SKC,0.00,0.0,WeatherDisplay:10.37,2013-09-07 21:16:00,
2013-09-07 23:21:00,62.4,50.9,30.13,SSW,209,3.5,3.5,66,0.00,SCT,SKC,0.00,0.0,WeatherDisplay:10.37,2013-09-07 21:21:00,
2013-09-07 23:26:00,62.4,51.3,30.13,SSW,209,1.2,0.0,67,0.00,SCT,SKC,0.00,0.0,WeatherDisplay:10.37,2013-09-07 21:26:00,
2013-09-07 23:31:00,62.3,51.6,30.13,SSW,209,1.2,1.2,68,0.00,SCT,SKC,0.00,0.0,WeatherDisplay:10.37,2013-09-07 21:31:00,
2013-09-07 23:36:00,62.2,51.5,30.13,SSW,209,1.2,1.2,68,0.00,SCT,SKC,0.00,0.0,WeatherDisplay:10.37,2013-09-07 21:36:00,
2013-09-07 23:41:00,62.2,51.9,30.13,SSW,209,1.2,1.2,69,0.00,SCT,SKC,0.00,0.0,WeatherDisplay:10.37,2013-09-07 21:41:00,
2013-09-07 23:46:00,62.2,51.9,30.13,SSW,209,3.5,3.5,69,0.00,SCT,SKC,0.00,0.0,WeatherDisplay:10.37,2013-09-07 21:46:00,
2013-09-07 23:51:00,62.1,51.8,30.12,SSW,209,3.5,3.5,69,0.00,SCT,SKC,0.00,0.0,WeatherDisplay:10.37,2013-09-07 21:51:00,
2013-09-07 23:56:00,62.0,51.7,30.12,SSW,209,3.5,3.5,69,0.00,SCT,SKC,0.00,0.0,WeatherDisplay:10.37,2013-09-07 21:56:00,